Location: ????????
(55.6189°N, 38.3031°E)
Time: 03:17:51
(UTC+00:00)

Cosmos 2058 - Pass Details

Date: 15 November 2019
Orbit: 561 x 585 km, 82.5° (Epoch: 12 December)

Event Time Altitude Azimuth Distance (km) Brightness Sun altitude
Rises 03:56:26 0° 235° (SW) 2,807 6.1 -8.9°
Reaches altitude 10° 03:59:11 10° 253° (WSW) 1,911 5.1 -8.6°
Maximum altitude 04:02:13 19° 300° (WNW) 1,420 4.3 -8.2°
Drops below altitude 10° 04:05:16 10° 346° (NNW) 1,914 5.2 -7.8°
Sets 04:08:01 0° 4° (N) 2,815 6.3 -7.4°
